Location: Hamilton
(39.3990°N, 84.5610°W)
Time: 16:02:46
(UTC-04:00)

ISS - Visible Passes

Search period start: 25 May 2017 00:00
Search period end: 04 June 2017 00:00
Orbit: 402 x 408 km, 51.6° (Epoch: 26 May)

Date Brightness Start Highest point End Pass type
(mag) Time Alt. Az. Time Alt. Az. Time Alt. Az.
25 May -0.1 01:19:11 10° N 01:19:30 10° N 01:19:49 10° N visible
25 May -0.5 02:55:16 10° NNW 02:57:08 14° NNE 02:59:01 10° NE visible
25 May -3.2 04:30:57 10° NW 04:34:11 58° NE 04:37:25 10° ESE visible
25 May -1.8 22:46:48 10° W 22:49:47 31° NNW 22:52:46 10° NE visible
26 May -0.2 00:25:59 10° NNW 00:27:06 11° N 00:28:14 10° N visible
26 May -0.2 02:03:34 10° N 02:04:47 12° N 02:06:00 10° NNE visible
26 May -2.0 03:39:03 10° NW 03:42:04 33° NNE 03:45:04 10° E visible
26 May -2.9 05:15:41 10° WNW 05:18:29 26° SW 05:21:15 10° SSE visible
26 May -2.9 21:54:25 10° WSW 21:57:39 53° NW 22:00:53 10° NE visible
26 May -0.5 23:32:56 10° NW 23:34:44 14° NNW 23:36:31 10° NNE visible
27 May -0.2 01:11:56 10° N 01:12:23 10° N 01:12:51 10° NNE visible
27 May -1.2 02:47:13 10° NNW 02:49:52 22° NNE 02:51:15 17° ENE visible
27 May -2.9 04:27:43 32° SSE 04:27:43 32° SSE 04:29:44 10° SE visible
27 May -0.8 22:40:01 10° WNW 22:42:24 18° NNW 22:44:47 10° NNE visible
28 May -0.7 01:55:27 10° NNW 01:57:34 16° NNE 01:57:35 16° NNE visible
28 May -1.4 21:47:17 10° W 21:50:07 26° NNW 21:52:58 10° NNE visible
28 May -0.3 23:26:39 10° NNW 23:27:31 11° N 23:28:21 10° N visible
29 May -0.5 01:03:42 10° NNW 01:05:11 12° NNE 01:06:21 11° NE visible
29 May -0.6 22:33:31 10° NW 22:35:05 13° NNW 22:36:39 10° NNE visible
30 May -0.4 00:11:59 10° N 00:12:45 11° N 00:13:31 10° NNE visible
30 May -0.7 01:47:21 10° NNW 01:48:07 15° NNW 01:48:07 15° NNW visible
30 May -0.8 21:40:31 10° WNW 21:42:42 16° NNW 21:44:53 10° NNE visible
31 May -0.9 00:55:31 10° NNW 00:57:26 17° NNE 00:57:26 17° NNE visible
31 May -0.4 22:27:14 10° NNW 22:27:48 10° N 22:28:22 10° N visible
01 Jun -0.8 00:03:44 10° NNW 00:05:27 13° NNE 00:06:50 11° NE visible
01 Jun -0.5 01:39:21 10° NW 01:39:27 11° NW 01:39:27 11° NW visible
01 Jun -0.6 21:34:01 10° NW 21:35:19 12° NNW 21:36:39 10° NNE visible
01 Jun -0.7 23:11:57 10° N 23:13:00 11° N 23:14:03 10° NNE visible
02 Jun -1.2 00:47:23 10° NW 00:48:54 21° NNW 00:48:54 21° NNW visible
02 Jun -0.5 22:20:14 10° N 22:20:30 10° N 22:20:46 10° N visible
02 Jun -1.5 23:55:30 10° NNW 23:58:01 20° NNE 23:58:23 19° NNE visible
03 Jun -1.0 23:03:38 10° NNW 23:05:36 15° NNE 23:07:34 10° NE visible
